Weather History for KHWY - March, 2013

Change the Weather History Date:

Wednesday, March 27, 2013

  Actual Average (KHEF) Record (KHEF)
Temperature  
Mean Temperature 40 °F -  
Max Temperature 52 °F 57 °F 84 °F (1998)
Min Temperature 28 °F 35 °F 17 °F (2014)
Degree Days  
Heating Degree Days 25    
Moisture  
Dew Point 32 °F    
Average Humidity 70    
Maximum Humidity 100    
Minimum Humidity 50    
Precipitation  
Precipitation 0.00 in - - ()
Sea Level Pressure  
Sea Level Pressure 30.07 in    
Wind  
Wind Speed 7 mph (WNW)    
Max Wind Speed 22 mph    
Max Gust Speed 31 mph    
Visibility 10 miles    
Events      
Averages and records for this station are not official NWS values.
T = Trace of Precipitation, MM = Missing Value Source: NWS Daily Summary

Daily Weather History Graph

Daily Weather History Graph

Search for Another Location

Airport or City:

Trip Planner

Search our weather history database for the weather conditions in past years. The results will help you decide how hot, cold, wet, or windy it might be!

Date:

Astronomy

Mar. 27, 2013 Rise Set
Actual Time 7:03 AM EDT 7:29 PM EDT
Civil Twilight 6:36 AM EDT 7:56 PM EDT
Nautical Twilight 6:05 AM EDT 8:27 PM EDT
Astronomical Twilight 5:33 AM EDT 8:59 PM EDT
Moon 8:10 PM EDT (3/27) 6:53 AM EDT (3/27)
Length of Visible Light 13h 19m
Length of Day
12h 26m
Full, 100% of the Moon is Illuminated
Mar 27
Full
Apr 3
Last Quarter
Apr 10
New
Apr 18
First Quarter
Apr 25
Full

Hourly Weather History & Observations

Time (EDT) Temp. Windchill Dew Point Humidity Pressure Visibility Wind Dir Wind Speed Gust Speed Precip Events Conditions
12:15 AM 41.0 °F 39.0 °F 32.4 °F 71% 30.02 in 10.0 mi NW 3.5 mph - N/A   Clear
12:35 AM 40.1 °F - 32.4 °F 74% 30.02 in 10.0 mi Calm Calm - N/A   Clear
12:55 AM 38.3 °F - 32.7 °F 80% 30.02 in 10.0 mi Calm Calm - N/A   Scattered Clouds
1:15 AM 39.7 °F 37.6 °F 32.7 °F 76% 30.02 in 10.0 mi NW 3.5 mph - N/A   Scattered Clouds
1:35 AM 39.2 °F - 32.5 °F 77% 30.02 in 10.0 mi Calm Calm - N/A   Clear
1:55 AM 35.6 °F - 32.2 °F 87% 30.02 in 10.0 mi Calm Calm - N/A   Clear
2:15 AM 37.2 °F 31.9 °F 32.2 °F 82% 30.02 in 10.0 mi WNW 6.9 mph - N/A   Clear
2:35 AM 38.3 °F 32.5 °F 32.4 °F 79% 30.02 in 10.0 mi WNW 8.1 mph - N/A   Clear
2:55 AM 39.4 °F 33.8 °F 32.4 °F 76% 30.02 in 10.0 mi WNW 8.1 mph - N/A   Scattered Clouds
3:15 AM 38.5 °F 32.1 °F 32.2 °F 78% 30.01 in 10.0 mi WNW 9.2 mph - N/A   Clear
3:35 AM 39.0 °F 32.8 °F 32.2 °F 76% 30.01 in 10.0 mi WNW 9.2 mph - N/A   Clear
3:55 AM 39.6 °F 33.5 °F 32.2 °F 75% 30.02 in 10.0 mi WNW 9.2 mph - N/A   Clear
4:15 AM 38.5 °F 32.7 °F 32.0 °F 78% 30.02 in 10.0 mi WNW 8.1 mph - N/A   Clear
4:35 AM 36.5 °F 33.9 °F 32.0 °F 84% 30.02 in 10.0 mi West 3.5 mph - N/A   Clear
4:55 AM 36.9 °F - 31.8 °F 82% 30.03 in 10.0 mi Calm Calm - N/A   Clear
5:15 AM 34.3 °F - 30.9 °F 87% 30.03 in 10.0 mi Calm Calm - N/A   Clear
5:35 AM 32.2 °F 28.9 °F 30.4 °F 93% 30.03 in 10.0 mi South 3.5 mph - N/A   Clear
5:55 AM 30.6 °F - 29.8 °F 97% 30.03 in 10.0 mi Calm Calm - N/A   Clear
6:15 AM 29.3 °F 25.6 °F 28.9 °F 99% 30.04 in 10.0 mi SSW 3.5 mph - N/A   Clear
6:35 AM 28.6 °F 24.8 °F 28.6 °F 100% 30.04 in 10.0 mi ESE 3.5 mph - N/A   Clear
6:55 AM 30.2 °F - 29.3 °F 96% 30.05 in 10.0 mi Calm Calm - N/A   Clear
7:15 AM 28.2 °F - 28.0 °F 99% 30.05 in 10.0 mi Calm Calm - N/A   Clear
7:35 AM 28.8 °F - 28.8 °F 100% 30.06 in 10.0 mi Calm Calm - N/A   Clear
7:55 AM 31.3 °F - 31.1 °F 99% 30.06 in 10.0 mi Calm Calm - N/A   Clear
8:15 AM 34.3 °F 31.4 °F 32.9 °F 94% 30.07 in 10.0 mi WSW 3.5 mph - N/A   Clear
8:35 AM 40.8 °F 34.5 °F 32.0 °F 71% 30.07 in 10.0 mi WNW 10.4 mph - N/A   Clear
8:55 AM 42.8 °F 37.5 °F 31.6 °F 65% 30.08 in 10.0 mi WNW 9.2 mph - N/A   Clear
9:15 AM 44.4 °F 37.9 °F 32.0 °F 62% 30.08 in 10.0 mi NW 13.8 mph - N/A   Clear
9:35 AM 45.1 °F 38.1 °F 32.4 °F 61% 30.09 in 10.0 mi WNW 16.1 mph 24.2 mph N/A   Clear
9:55 AM 46.2 °F 39.5 °F 32.7 °F 59% 30.09 in 10.0 mi NW 16.1 mph 25.3 mph N/A   Clear
10:15 AM 46.4 °F 38.7 °F 33.1 °F 60% 30.08 in 10.0 mi WNW 20.7 mph 26.5 mph N/A   Clear
10:35 AM 48.4 °F - 34.2 °F 58% 30.08 in 10.0 mi NW 19.6 mph 25.3 mph N/A   Clear
10:55 AM 48.9 °F - 34.7 °F 58% 30.08 in 10.0 mi WNW 17.3 mph 26.5 mph N/A   Scattered Clouds
11:15 AM 47.3 °F - 33.1 °F 58% 30.08 in 10.0 mi WNW 19.6 mph 29.9 mph N/A   Mostly Cloudy
11:35 AM 48.2 °F - 34.5 °F 59% 30.08 in 10.0 mi WNW 15.0 mph 20.7 mph N/A   Mostly Cloudy
11:55 AM 49.6 °F - 34.9 °F 57% 30.08 in 10.0 mi WNW 17.3 mph 21.9 mph N/A   Mostly Cloudy
12:15 PM 49.3 °F - 34.5 °F 57% 30.08 in 10.0 mi WNW 15.0 mph 25.3 mph N/A   Scattered Clouds
12:35 PM 51.4 °F - 36.1 °F 56% 30.08 in 10.0 mi NW 17.3 mph - N/A   Scattered Clouds
12:55 PM 50.0 °F - 34.7 °F 56% 30.08 in 10.0 mi NW 17.3 mph 26.5 mph N/A   Scattered Clouds
1:15 PM 49.3 °F - 33.3 °F 54% 30.07 in 10.0 mi NW 15.0 mph 21.9 mph N/A   Scattered Clouds
1:35 PM 51.1 °F - 34.7 °F 54% 30.07 in 10.0 mi NNW 19.6 mph 25.3 mph N/A   Mostly Cloudy
1:55 PM 51.6 °F - 35.2 °F 54% 30.07 in 10.0 mi WNW 21.9 mph 29.9 mph N/A   Scattered Clouds
2:15 PM 52.2 °F - 35.8 °F 54% 30.08 in 10.0 mi WNW 20.7 mph 31.1 mph N/A   Scattered Clouds
2:35 PM 50.7 °F - 35.4 °F 56% 30.08 in 10.0 mi NW 15.0 mph 21.9 mph N/A   Mostly Cloudy
2:55 PM 52.2 °F - 35.2 °F 53% 30.07 in 10.0 mi NW 17.3 mph 23.0 mph N/A   Mostly Cloudy
3:15 PM 51.8 °F - 35.2 °F 53% 30.07 in 10.0 mi WNW 15.0 mph 24.2 mph N/A   Mostly Cloudy
3:35 PM 51.3 °F - 34.3 °F 52% 30.07 in 10.0 mi WNW 18.4 mph 31.1 mph N/A   Mostly Cloudy
3:55 PM 50.5 °F - 34.9 °F 55% 30.07 in 10.0 mi NW 12.7 mph 24.2 mph N/A   Scattered Clouds
4:15 PM 51.4 °F - 33.4 °F 50% 30.07 in 10.0 mi WNW 18.4 mph 25.3 mph N/A   Mostly Cloudy
4:35 PM 48.4 °F - 32.9 °F 55% 30.06 in 10.0 mi NW 17.3 mph 26.5 mph N/A   Mostly Cloudy
4:55 PM 50.0 °F - 33.6 °F 53% 30.07 in 10.0 mi WNW 18.4 mph 25.3 mph N/A   Scattered Clouds
5:15 PM 49.8 °F - 32.9 °F 52% 30.07 in 10.0 mi WNW 17.3 mph 26.5 mph N/A   Clear
5:35 PM 49.5 °F - 32.9 °F 53% 30.08 in 10.0 mi NW 15.0 mph 25.3 mph N/A   Scattered Clouds
5:55 PM 49.3 °F - 32.0 °F 51% 30.08 in 10.0 mi WNW 15.0 mph 23.0 mph N/A   Clear
6:15 PM 48.9 °F - 32.0 °F 52% 30.08 in 10.0 mi WNW 10.4 mph 21.9 mph N/A   Scattered Clouds
6:35 PM 47.3 °F - 31.8 °F 55% 30.09 in 10.0 mi WNW 13.8 mph 25.3 mph N/A   Scattered Clouds
6:55 PM 46.8 °F - 32.0 °F 57% 30.09 in 10.0 mi WNW 15.0 mph 21.9 mph N/A   Clear
7:15 PM 45.5 °F 40.3 °F 31.1 °F 57% 30.10 in 10.0 mi WNW 10.4 mph 16.1 mph N/A   Scattered Clouds
7:35 PM 44.8 °F 39.9 °F 31.5 °F 60% 30.11 in 10.0 mi WNW 9.2 mph - N/A   Overcast
7:55 PM 44.4 °F 38.6 °F 32.0 °F 62% 30.11 in 10.0 mi WNW 11.5 mph - N/A   Overcast
8:15 PM 43.3 °F 39.2 °F 32.0 °F 64% 30.11 in 10.0 mi WNW 6.9 mph - N/A   Overcast
8:35 PM 41.9 °F 36.9 °F 32.0 °F 68% 30.11 in 10.0 mi WNW 8.1 mph - N/A   Scattered Clouds
8:55 PM 41.2 °F 36.0 °F 32.0 °F 70% 30.12 in 10.0 mi WNW 8.1 mph - N/A   Clear
9:15 PM 39.9 °F 35.1 °F 31.6 °F 72% 30.12 in 10.0 mi NW 6.9 mph - N/A   Clear
9:35 PM 38.1 °F 32.9 °F 31.8 °F 78% 30.13 in 10.0 mi NW 6.9 mph - N/A   Clear
9:55 PM 38.3 °F 31.9 °F 32.0 °F 78% 30.13 in 10.0 mi WNW 9.2 mph - N/A   Clear
10:15 PM 38.5 °F 34.1 °F 32.0 °F 78% 30.13 in 10.0 mi WNW 5.8 mph - N/A   Clear
10:35 PM 38.3 °F - 31.6 °F 77% 30.13 in 10.0 mi Calm Calm - N/A   Clear
10:55 PM 36.7 °F - 30.6 °F 78% 30.14 in 10.0 mi Calm Calm - N/A   Clear
11:15 PM 35.6 °F - 30.4 °F 81% 30.14 in 10.0 mi Calm Calm - N/A   Clear
11:35 PM 33.6 °F 30.6 °F 30.0 °F 87% 30.13 in 10.0 mi West 3.5 mph - N/A   Clear
11:55 PM 32.0 °F - 30.0 °F 92% 30.14 in 10.0 mi Calm Calm - N/A   Clear